This is the latest recevied weather packets stored in our database for station/object K3HM. If no packets are shown the sender has not sent any weather packets the latest 1 day(s).
| Time | Temp. | Humidity | Pressure | Rain* | Wind** | Luminosity | Snow |
|---|---|---|---|---|---|---|---|
| 1778042802 | 13.89° C | 74% | 1011.2 hPa | 0 mm | - | 0 W/m² | - |
| 1778042499 | 13.89° C | 74% | 1011.2 hPa | 0 mm | - | 0 W/m² | - |
| 1778042196 | 13.89° C | 73% | 1011.1 hPa | 0 mm | - | 0 W/m² | - |
| 1778041894 | 13.89° C | 74% | 1011.1 hPa | 0 mm | - | 0 W/m² | - |
| 1778041593 | 13.89° C | 74% | 1011.3 hPa | 0 mm | - | 0 W/m² | - |
| 1778041291 | 14.44° C | 71% | 1011.2 hPa | 0 mm | - | 0 W/m² | - |
| 1778040989 | 14.44° C | 70% | 1011.3 hPa | 0 mm | - | 0 W/m² | - |
| 1778040685 | 14.44° C | 69% | 1011.2 hPa | 0 mm | - | 0 W/m² | - |
| 1778040383 | 13.89° C | 72% | 1011.1 hPa | 0 mm | - | 0 W/m² | - |
| 1778040080 | 13.89° C | 75% | 1011.1 hPa | 0 mm | - | 0 W/m² | - |
| 1778039777 | 13.89° C | 73% | 1011 hPa | 0 mm | - | 0 W/m² | - |
| 1778039473 | 13.89° C | 73% | 1011.1 hPa | 0 mm | - | 0 W/m² | - |
| 1778039171 | 13.89° C | 73% | 1011 hPa | 0 mm | - | 0 W/m² | - |
| 1778038868 | 13.89° C | 71% | 1011.1 hPa | 0 mm | - | 0 W/m² | - |
| 1778038565 | 13.89° C | 72% | 1011.3 hPa | 0 mm | - | 0 W/m² | - |
| 1778037959 | 13.33° C | 76% | 1011.2 hPa | 0 mm | - | 0 W/m² | - |
| 1778037656 | 13.89° C | 76% | 1011.2 hPa | 0 mm | - | 0 W/m² | - |
| 1778037353 | 14.44° C | 72% | 1011.3 hPa | 0 mm | - | 0 W/m² | - |
| 1778037050 | 13.89° C | 69% | 1011.4 hPa | 0 mm | - | 0 W/m² | - |
| 1778036748 | 13.89° C | 71% | 1011.2 hPa | 0 mm | - | 0 W/m² | - |
| 1778036445 | 13.89° C | 69% | 1011.2 hPa | 0 mm | - | 0 W/m² | - |
| 1778036142 | 13.89° C | 72% | 1011.2 hPa | 0 mm | - | 0 W/m² | - |
| 1778035838 | 13.33° C | 72% | 1011.1 hPa | 0 mm | - | 0 W/m² | - |
| 1778035232 | 13.33° C | 73% | 1011.2 hPa | 0 mm | - | 0 W/m² | - |
| 1778034927 | 13.33° C | 73% | 1011.2 hPa | 0 mm | - | 0 W/m² | - |
* Rain latest hour (hover to see other rain measurements)
** Current wind speed in m/s (hover to see current wind gust speed)